Wind_Speed
17 17 18 18 17 16 17 19 20 22 22 21 22 23 22 22 21 22 23 24 23 23 24 24 24 24 24 24 24 23 22 20 19 17 16 16 15 15 15 15 15 14 14
18 18 19 19 18 18 18 17 19 20 21 22 22 22 23 22 22 24 26 27 27 26 27 27 26 30 27 25 24 24 23 21 19 18 17 16 16 16 15 14 15 15 15
21 20 19 19 18 19 17 17 20 21 21 22 21 21 21 20 21 25 27 27 27 28 29 29 28 27 28 28 25 25 23 21 20 18 18 18 18 18 17 15 15 15 16
22 20 20 20 19 20 18 19 20 22 22 20 20 20 20 20 23 25 26 27 27 28 32 32 32 28 27 28 27 25 24 22 21 19 19 19 20 20 19 16 16 16 16
21 21 22 20 20 20 19 20 20 22 19 16 17 19 20 21 24 27 27 28 31 32 36 36 34 35 30 30 29 26 24 23 22 21 20 22 21 21 18 18 19 16 14
21 22 21 21 21 21 21 21 19 20 15 16 16 18 19 21 25 25 25 27 29 27 26 37 37 36 34 30 29 28 26 25 22 22 22 23 23 20 19 20 19 17 14
24 22 24 24 22 22 23 21 19 17 16 15 15 17 20 22 24 23 23 26 28 35 38 38 37 34 39 31 30 30 27 24 24 25 24 26 25 23 21 22 20 16 13
25 24 25 25 23 24 24 22 19 18 17 15 16 18 19 21 23 23 26 23 25 25 32 40 39 35 30 30 30 29 25 26 26 27 28 29 28 26 24 25 24 23 21
28 27 28 27 25 25 25 23 21 20 17 15 17 16 18 19 21 19 17 17 20 26 29 39 41 27 33 33 23 26 24 26 25 29 36 33 30 27 27 28 27 23 21
32 29 31 29 28 28 26 25 23 22 19 16 16 15 17 18 19 21 19 16 19 26 30 36 32 28 25 24 23 31 27 22 26 31 34 37 33 30 28 28 28 25 21
35 33 32 32 30 31 28 27 25 23 21 19 17 14 16 18 19 23 22 18 19 27 27 36 42 28 24 27 22 24 27 22 20 26 35 39 31 28 26 24 22 21 22
38 36 34 32 31 32 30 29 27 25 24 21 18 15 16 18 19 24 21 19 16 14 26 26 29 21 25 23 22 25 28 33 29 32 33 32 31 28 27 25 23 22 23
40 35 33 31 33 33 32 30 28 27 25 23 20 17 16 18 17 21 20 23 23 21 25 29 22 22 22 21 23 25 34 34 31 35 35 32 26 24 26 26 26 25 25
40 36 33 33 34 33 34 32 31 28 26 25 21 19 17 17 18 19 17 14 19 29 29 35 26 23 22 24 27 35 35 38 33 35 32 31 34 31 26 26 24 25 27
39 39 37 37 37 36 36 34 33 30 26 26 23 21 18 18 18 16 17 15 33 38 33 23 22 29 26 30 32 33 33 34 33 33 39 36 37 36 31 29 27 26 26
40 40 39 39 39 38 36 36 35 32 28 28 25 24 20 18 18 15 19 23 18 30 29 25 22 28 25 36 39 38 37 38 35 35 36 38 36 33 29 28 31 31 31
44 45 45 43 41 39 39 39 38 35 31 30 27 25 24 19 20 16 19 23 20 31 24 24 28 30 27 39 44 45 43 41 40 38 38 37 34 35 36 35 35 33 33
50 50 49 48 45 43 42 41 40 38 34 33 30 28 26 23 22 20 18 21 27 38 36 31 31 31 29 34 38 38 43 44 42 39 39 39 39 39 38 36 34 35 35
55 55 53 53 50 48 47 44 42 41 38 35 33 31 29 27 25 23 21 21 26 33 33 35 35 40 36 34 40 47 45 43 43 40 39 43 42 41 40 37 38 37 36
58 56 57 56 55 53 50 47 44 43 40 38 36 34 32 30 29 28 26 23 23 26 31 33 38 36 39 41 43 46 50 50 48 47 45 46 46 45 43 40 39 38 37
61 59 58 59 58 57 53 50 48 45 43 41 39 38 36 34 32 31 29 27 25 25 26 30 33 39 40 40 44 43 45 47 45 50 50 50 49 49 47 45 43 41 40
64 64 63 60 60 60 57 55 52 49 48 46 43 42 39 38 37 35 33 31 29 26 26 27 31 38 43 44 41 42 45 45 41 46 56 55 54 51 47 46 46 45 43
67 66 66 66 62 63 61 60 56 53 52 49 45 43 40 39 39 39 38 35 33 31 29 29 30 36 39 40 42 41 41 38 38 39 47 53 55 51 48 49 49 49 49
68 67 68 68 66 62 63 62 60 56 54 51 49 47 46 44 43 43 42 38 35 33 33 32 33 32 34 38 41 40 40 41 40 40 43 50 53 51 53 53 52 51 49
70 69 69 69 69 64 64 63 62 60 59 56 54 53 51 49 47 46 44 42 39 37 37 36 36 35 34 34 35 38 40 40 41 40 42 45 49 53 56 55 54 53 51
76 75 73 71 70 68 67 66 63 62 62 60 57 55 53 51 51 49 46 45 43 42 40 40 40 37 36 36 37 35 33 33 34 35 35 38 37 38 42 45 47 47 50
Wind_Direction
257 261 263 266 272 272 278 282 284 283 278 275 273 267 266 263 262 264 261 253 243 234 234 233 227 224 217 217 216 216 218 219 219 216 210 212 216 216 213 213 211 206 208
254 258 262 267 270 276 281 282 283 283 281 275 272 268 264 266 262 262 259 254 247 235 231 229 229 221 216 218 216 216 217 218 217 215 211 209 212 213 212 213 212 209 210
250 253 259 266 271 277 274 278 282 282 279 276 271 268 263 263 262 263 262 254 243 235 229 226 228 223 211 219 216 215 215 217 217 213 213 212 211 212 211 208 212 211 214
248 254 259 263 271 273 274 278 281 285 285 278 274 276 265 265 264 266 260 257 244 239 226 220 223 231 215 217 220 217 216 217 217 215 216 218 215 214 212 206 211 213 217
246 253 260 262 267 267 269 274 281 289 288 280 281 274 266 267 269 265 262 257 245 239 231 213 218 224 215 215 217 219 218 217 216 216 216 219 215 213 209 204 209 207 215
245 251 257 260 265 264 266 272 282 289 284 284 286 273 270 268 269 267 261 253 246 222 220 217 217 226 213 210 212 218 219 218 215 216 217 219 215 211 204 203 205 209 209
250 250 256 257 259 260 262 269 276 278 279 291 285 272 270 273 271 267 258 254 247 238 230 227 218 230 205 207 210 217 220 220 218 220 219 217 214 208 204 204 202 200 192
253 257 258 257 255 256 258 265 270 273 276 289 279 274 277 280 272 261 263 251 240 244 225 215 220 219 197 202 212 218 221 226 224 221 219 216 213 208 205 208 207 207 203
252 253 257 257 254 254 256 262 264 266 268 279 287 284 281 278 277 261 279 248 240 223 221 211 221 209 216 206 202 215 211 219 229 231 218 216 209 208 206 207 207 209 209
256 255 256 255 252 252 253 257 259 262 265 271 280 277 280 278 268 264 257 260 248 228 215 222 223 192 191 204 209 220 210 217 231 235 225 209 206 206 208 211 201 199 206
257 256 255 255 251 251 251 254 255 257 263 265 274 276 275 273 271 263 257 255 266 220 238 214 218 198 202 202 207 206 224 206 226 230 232 205 199 202 205 205 204 204 206
256 254 254 256 252 251 250 252 255 256 258 261 268 276 273 270 271 264 256 250 261 249 161 183 178 169 207 218 222 221 228 206 214 214 203 200 202 208 212 212 208 209 210
256 256 255 252 249 249 249 250 252 253 256 257 262 269 270 269 272 272 269 266 257 218 211 188 195 204 211 213 223 220 200 194 196 203 200 196 205 212 221 214 212 212 217
251 251 250 248 248 249 250 247 249 251 251 254 257 260 268 266 265 269 261 260 198 197 204 197 187 191 206 201 196 188 191 195 199 191 187 195 197 203 209 203 211 216 220
252 250 248 247 246 243 245 246 247 248 249 250 252 254 256 261 267 256 247 205 189 200 196 198 193 193 202 194 200 193 193 191 194 202 206 202 202 206 212 216 217 220 222
250 247 246 244 244 241 241 243 246 246 246 246 247 249 247 252 260 255 239 245 209 215 196 205 212 199 207 200 199 196 202 205 201 205 204 206 210 214 215 219 225 224 227
245 245 242 239 239 238 238 240 243 243 243 245 242 245 248 241 253 246 244 237 256 183 188 207 204 206 215 199 200 207 211 216 220 226 228 216 221 222 221 222 226 227 229
240 240 242 242 238 237 237 238 241 243 242 243 242 241 242 243 240 246 246 242 232 222 237 236 230 222 218 210 210 216 222 220 224 232 236 220 222 224 224 225 228 232 232
241 238 239 240 239 237 237 237 239 243 243 245 242 240 239 238 240 239 239 242 240 238 239 243 240 222 219 219 211 212 216 222 227 231 233 223 221 226 227 227 232 235 237
245 241 240 240 241 239 238 240 239 242 245 246 246 243 239 238 234 237 237 236 242 242 239 235 219 222 221 219 218 219 224 226 229 235 234 228 227 224 229 234 235 237 239
242 243 243 239 240 241 241 241 243 243 245 243 245 245 241 239 238 235 234 235 235 241 241 239 228 225 217 217 220 225 224 228 233 234 234 236 236 231 232 235 239 239 242
244 243 241 240 240 242 243 242 241 241 242 242 241 242 243 241 239 238 235 234 234 232 239 240 233 225 220 222 223 226 228 234 233 233 236 238 235 231 233 235 238 241 244
240 242 243 242 238 241 242 243 242 241 242 245 245 246 246 246 245 242 238 235 233 231 230 232 232 233 230 226 226 227 230 235 236 237 237 237 236 231 234 236 239 243 249
240 242 242 242 240 236 239 241 244 243 242 242 243 242 242 243 243 243 243 241 238 236 235 233 234 234 239 238 237 239 240 238 237 241 241 240 236 234 236 239 242 245 248
238 238 240 242 240 236 235 238 239 244 243 242 243 243 242 242 244 244 243 242 241 239 238 238 235 233 234 237 240 240 242 241 242 242 244 245 242 240 238 239 240 242 245
237 238 238 238 239 237 235 235 236 239 241 243 242 243 244 244 246 246 244 243 242 243 240 238 239 238 236 236 235 240 243 245 243 239 239 242 245 247 252 255 257 258 257
Height
5789 5789 5789 5790 5790 5790 5790 5790 5789 5789 5789 5789 5788 5788 5789 5790 5791 5792 5793 5794 5795 5797 5799 5800 5802 5805 5807 5809 5812 5815 5817 5819 5821 5823 5825 5828 5831 5833 5835 5837 5839 5841 5842
5785 5785 5786 5787 5787 5787 5786 5786 5786 5786 5786 5785 5784 5784 5785 5786 5787 5787 5789 5789 5791 5792 5795 5797 5799 5800 5804 5806 5810 5812 5814 5816 5819 5822 5824 5827 5830 5832 5833 5835 5837 5838 5841
5780 5781 5783 5783 5783 5783 5783 5782 5782 5782 5782 5781 5781 5780 5781 5781 5782 5783 5784 5785 5786 5787 5790 5794 5796 5792 5800 5804 5807 5810 5812 5815 5818 5821 5823 5825 5828 5830 5832 5834 5836 5838 5839
5776 5778 5779 5779 5779 5779 5779 5779 5779 5778 5777 5777 5777 5775 5776 5777 5778 5779 5779 5781 5782 5783 5785 5789 5792 5793 5797 5801 5804 5807 5810 5814 5815 5819 5821 5823 5826 5829 5831 5833 5835 5837 5839
5773 5774 5774 5775 5775 5776 5775 5775 5774 5773 5773 5773 5772 5771 5772 5773 5774 5774 5774 5774 5776 5777 5779 5783 5787 5789 5793 5797 5801 5805 5808 5810 5812 5816 5820 5822 5824 5828 5830 5832 5834 5836 5838
5769 5770 5770 5771 5771 5771 5771 5771 5770 5770 5770 5769 5768 5768 5768 5770 5770 5769 5768 5769 5770 5771 5774 5778 5781 5783 5788 5793 5798 5802 5804 5807 5811 5814 5817 5820 5824 5825 5828 5830 5832 5834 5837
5764 5765 5765 5766 5767 5767 5768 5768 5767 5766 5766 5765 5764 5764 5765 5765 5766 5765 5764 5763 5765 5766 5769 5773 5775 5777 5782 5788 5794 5798 5802 5805 5808 5811 5815 5819 5821 5823 5826 5828 5830 5834 5836
5759 5759 5761 5761 5762 5763 5763 5764 5763 5764 5763 5761 5761 5761 5762 5762 5761 5760 5759 5758 5759 5759 5760 5764 5763 5772 5774 5783 5790 5795 5799 5802 5805 5808 5811 5816 5818 5821 5823 5827 5829 5832 5836
5752 5753 5754 5755 5757 5757 5758 5759 5760 5759 5759 5757 5758 5759 5758 5758 5757 5756 5755 5754 5755 5754 5757 5760 5750 5767 5775 5779 5787 5792 5797 5798 5801 5804 5807 5812 5814 5818 5820 5823 5827 5830 5834
5745 5747 5748 5749 5750 5752 5753 5754 5755 5755 5755 5754 5754 5755 5755 5755 5754 5752 5752 5751 5752 5752 5754 5758 5759 5766 5773 5777 5783 5789 5794 5795 5797 5800 5804 5808 5811 5815 5817 5820 5823 5827 5831
5738 5740 5742 5743 5744 5745 5747 5748 5749 5750 5751 5751 5751 5752 5751 5752 5750 5749 5749 5748 5749 5750 5747 5753 5758 5763 5771 5777 5780 5785 5788 5791 5792 5796 5800 5804 5808 5812 5816 5819 5822 5826 5829
5731 5732 5735 5737 5738 5740 5742 5743 5744 5745 5746 5747 5748 5748 5747 5747 5747 5744 5746 5746 5748 5748 5749 5750 5755 5761 5770 5774 5776 5780 5784 5785 5791 5794 5798 5803 5806 5811 5815 5817 5820 5823 5827
5724 5727 5729 5730 5732 5733 5736 5737 5739 5740 5741 5743 5744 5745 5744 5743 5744 5740 5742 5740 5741 5747 5751 5752 5756 5762 5767 5772 5773 5775 5779 5783 5787 5791 5796 5801 5805 5809 5812 5815 5818 5822 5825
5716 5719 5721 5723 5724 5726 5728 5730 5732 5734 5736 5738 5739 5741 5741 5739 5741 5738 5741 5740 5734 5742 5748 5752 5758 5762 5766 5770 5772 5774 5778 5782 5787 5790 5795 5799 5804 5807 5809 5813 5816 5819 5822
5710 5711 5712 5714 5716 5719 5721 5724 5726 5728 5730 5732 5734 5737 5738 5736 5736 5738 5738 5739 5739 5738 5746 5749 5755 5759 5763 5767 5769 5772 5776 5780 5784 5789 5793 5797 5800 5803 5808 5811 5815 5817 5819
5700 5702 5703 5705 5708 5712 5714 5718 5720 5722 5724 5727 5729 5732 5734 5735 5732 5734 5735 5735 5740 5740 5742 5747 5752 5757 5761 5764 5766 5770 5774 5778 5783 5787 5790 5793 5797 5801 5804 5808 5811 5814 5816
5691 5693 5694 5697 5700 5703 5707 5710 5713 5716 5718 5721 5723 5727 5728 5731 5730 5732 5733 5733 5736 5737 5740 5745 5749 5754 5759 5762 5764 5767 5772 5777 5781 5784 5788 5790 5795 5798 5801 5804 5807 5810 5813
5678 5682 5686 5689 5691 5694 5698 5702 5705 5708 5711 5715 5716 5721 5723 5726 5728 5727 5729 5731 5733 5736 5737 5741 5745 5750 5754 5759 5762 5765 5769 5773 5776 5781 5783 5786 5790 5793 5796 5798 5801 5805 5808
5665 5671 5675 5679 5682 5686 5689 5693 5697 5701 5704 5708 5711 5714 5717 5720 5722 5724 5725 5727 5729 5731 5732 5734 5739 5744 5749 5754 5757 5760 5764 5768 5772 5775 5778 5781 5785 5788 5791 5794 5797 5800 5803
5653 5659 5664 5669 5672 5675 5680 5685 5689 5692 5697 5700 5705 5707 5711 5714 5717 5719 5720 5722 5723 5726 5727 5731 5734 5738 5742 5747 5751 5755 5759 5763 5765 5769 5773 5776 5780 5782 5786 5789 5792 5795 5798
5639 5647 5653 5657 5661 5665 5671 5675 5680 5684 5687 5691 5695 5699 5703 5707 5710 5712 5715 5716 5718 5720 5723 5725 5728 5732 5736 5741 5745 5749 5752 5756 5759 5762 5766 5769 5773 5776 5780 5784 5787 5789 5792
5626 5632 5637 5645 5650 5654 5661 5664 5668 5673 5677 5680 5685 5690 5695 5700 5703 5706 5709 5712 5714 5716 5718 5721 5723 5726 5730 5733 5738 5742 5746 5751 5752 5755 5759 5762 5765 5768 5773 5776 5780 5782 5785
5610 5616 5624 5629 5638 5643 5648 5653 5657 5662 5667 5672 5677 5682 5688 5693 5696 5699 5702 5705 5708 5711 5713 5716 5719 5722 5725 5728 5732 5736 5738 5742 5744 5747 5750 5753 5756 5760 5765 5768 5771 5774 5776
5594 5600 5607 5615 5622 5631 5635 5641 5647 5653 5657 5661 5666 5671 5676 5681 5686 5690 5692 5696 5700 5703 5706 5708 5713 5715 5719 5721 5724 5727 5730 5733 5736 5739 5742 5746 5749 5752 5757 5760 5763 5765 5767
5577 5583 5590 5598 5606 5617 5622 5628 5635 5640 5645 5650 5654 5660 5666 5670 5675 5680 5686 5689 5692 5696 5699 5702 5705 5708 5711 5715 5717 5720 5723 5725 5729 5732 5735 5738 5741 5743 5746 5749 5752 5755 5758
5559 5566 5573 5580 5588 5598 5607 5613 5619 5627 5633 5638 5643 5648 5655 5661 5666 5671 5677 5682 5686 5689 5693 5696 5699 5700 5703 5707 5711 5713 5716 5720 5723 5725 5727 5730 5734 5738 5740 5742 5744 5747 5749